STARLINK-32695, 62866

Orbit data source: Space-Track

STARLINK-32695, 62866 is a payload satellite owned by SpaceX/Seattle (US) in LEO that was launched on Sat, 01 Feb 2025 UTC via an FALCON 9 launch vehicle from the Air Force Western Test Range (AFWTR). Payload-class satellites include a variety of spacecraft equipped with specific instruments for various scientific and technological missions. These include communications satellites like Starlink; space stations such as the ISS; scientific satellites like the Hubble; Earth observation satellites from companies like Planet Labs, Umbra, and HawkEye 360; GPS; miniature CubeSats for education and research; and military/defense satellites.

Loading next visibility...
Identifier
62866, 2025-022N
Orbit
LEO
Country
Flag of USUS
Related business
Manufacturer
SpaceX/Seattle
Mission
Operational Commercial Communications
Bus & Motor
STARLINK V2M, Unknown motor
Mass
730 kg wet, ~700 kg dry
Launch date (UTC)
2025-02-01 (9 months ago)
Launch vehicle
FALCON 9
Launch site
Air Force Western Test Range (AFWTR)
Object type
Payload
Rocket body
Debris
Shape & HBR
Box + 2 Pan, 17.7 m
Radar Cross Section
33.884 m², Large (>1 m²)

Expand to show TLE details & history
Last TLE update: 9 hours ago

TLE from 9 hours ago
0 STARLINK-32695
1 62866U 25022N   25304.68841980  .00017654  00000-0  60757-3 0  9998
2 62866  53.1603   8.5125 0001030  92.2851 267.8267 15.30156572 42155
Epoch: 2025-10-31T16:31Z
TLE epoch observation values (Epoch: 2025-10-31T16:31:19.470Z)
Latitude
-0.00009°
Longitude
80.45205°
Altitude
476.271 km
Speed
7.629 km/s
True Right ascension
00h 34m 02s
True Declination
0° 00' 00"
Sunlit
Object was in full shadow at epoch
Visualization orbit readout
Latitude
Unknown
Longitude
Unknown
Altitude
Unknown
Speed
Unknown
Apparent Right ascension
Unknown
Apparent Declination
Unknown
Sunlit
N/A
Visualization observer readout
Local Sidereal Time
21:01:46
Azimuth
Unknown
Elevation
Unknown
Doppler factor
Unknown
Orbital elements
Apogee altitude
476.307 km
Perigee altitude
474.895 km
Semi-major axis
6,853.738 km
Eccentricity
0.0001
Inclination
53.1603°
RAAN
8.5125°
Arg. of periapsis
92.2851°
True anomaly
267.81491°
Mean anomaly
267.8267°
Eccentric anomaly
267.8208°
Mean motion
3.82518 °/min
Orbital period
94.11 mins
BSTAR
0.00060757
Loading maneuver chart data...
Computing Atmospheric mass density...
Loading historical data...
Loading historical data...
Loading historical data...
Loading historical data...
Loading historical data...
Loading historical data...
Loading historical data...

Documentation

Showing up to 5 results
|